Wetbulb
22.10 22.80 23.89 25.11 26.59 27.85 29.63 32.29 34.62 37.84 43.99 50.41 59.34 59.75 58.59 57.81 57.71 57.12 56.37 55.59 54.42 54.32 54.58 53.73 53.57 53.56 53.59 53.23 52.90 53.08 52.21 51.14 48.54 50.35 52.14 52.64 53.12 53.92 52.83 52.47 51.54 50.86 51.30
22.23 22.57 23.42 24.65 25.96 26.84 28.14 30.35 33.64 36.31 41.43 47.86 55.27 58.86 59.19 58.16 57.77 56.98 56.04 55.62 54.37 53.85 54.14 53.84 53.44 53.73 53.75 53.97 53.26 52.44 52.53 52.28 50.60 49.10 50.76 51.28 51.95 54.13 53.16 52.08 53.20 53.30 52.24
21.88 22.21 23.04 23.43 24.62 25.74 27.36 29.80 32.98 35.71 39.07 44.10 52.71 56.25 58.61 58.72 57.77 57.49 56.72 55.88 55.30 54.80 54.68 53.92 53.85 53.69 53.37 53.91 53.96 53.04 53.20 53.60 51.89 50.75 50.14 51.50 51.35 53.80 50.61 51.79 51.41 51.84 53.19
20.38 21.80 22.02 22.64 24.15 25.73 27.33 29.65 32.40 35.12 38.26 41.85 49.32 53.06 57.16 59.11 58.24 57.46 56.87 56.20 55.71 55.39 55.27 54.69 54.42 53.80 53.65 54.34 54.33 53.98 53.65 53.19 51.86 51.36 50.58 50.78 51.57 51.41 53.01 52.23 51.01 50.67 52.05
19.01 20.85 21.50 23.08 24.39 25.91 26.80 28.84 31.75 34.29 36.79 39.46 44.64 50.34 52.83 58.83 58.63 57.47 57.09 56.67 55.68 55.15 55.19 54.98 54.88 53.14 50.70 54.25 55.33 54.77 53.81 53.35 52.62 51.36 50.53 50.19 50.43 50.56 52.06 51.74 51.88 51.22 50.44
16.30 18.52 21.36 22.77 23.55 24.81 26.08 27.69 30.02 32.36 34.64 36.72 41.02 44.71 46.49 56.85 47.98 52.27 56.00 56.71 56.16 55.44 54.66 54.81 54.95 49.16 49.98 51.04 51.72 52.12 54.43 53.93 52.92 52.93 52.07 52.02 52.66 52.88 53.33 52.03 51.55 48.40 48.31
15.93 16.76 19.24 21.67 22.75 23.78 25.59 26.57 27.91 29.88 32.42 33.02 34.76 39.38 41.64 43.13 45.41 49.32 51.87 57.21 56.25 55.85 55.55 55.12 54.79 54.26 51.15 53.69 51.46 51.00 51.43 51.49 53.17 54.60 53.19 53.00 52.83 54.00 53.67 52.07 51.93 51.25 49.22
13.25 16.39 18.15 19.91 21.66 23.18 24.57 25.16 26.49 28.57 29.99 30.64 31.16 33.76 37.82 40.67 43.45 44.48 50.33 57.38 56.69 56.41 56.01 55.88 55.41 54.83 53.36 53.56 54.15 53.88 54.49 54.00 53.81 54.52 55.42 55.32 55.39 55.39 54.97 54.61 53.47 52.02 50.40
14.05 14.87 16.15 19.84 20.14 22.10 22.79 24.15 25.55 27.00 27.92 29.13 29.52 29.76 32.73 35.16 41.24 42.73 47.19 56.08 56.35 55.96 56.00 56.19 56.00 55.52 52.33 50.14 53.58 53.04 53.47 54.23 51.53 50.18 51.66 51.54 51.13 51.64 54.15 53.48 51.28 50.79 49.07
15.12 16.04 17.25 18.71 21.11 20.58 22.33 23.52 24.93 26.46 27.37 28.22 28.07 28.58 31.25 32.21 38.36 40.68 42.00 46.62 53.07 55.14 55.79 55.77 50.15 54.89 50.22 49.79 53.75 53.00 51.71 52.78 53.82 53.02 51.52 49.55 50.01 51.85 49.87 55.48 54.02 51.57 49.84
16.52 17.51 18.43 19.00 21.54 21.44 22.23 23.37 24.13 25.22 26.12 25.81 26.31 27.12 27.98 30.65 33.49 38.17 39.55 38.85 42.57 43.86 47.06 47.74 48.33 46.12 49.17 49.19 51.28 54.11 52.80 53.71 52.15 53.73 53.66 54.07 53.55 52.64 52.16 54.71 55.30 54.36 51.82
15.52 16.52 17.08 17.98 21.07 22.34 21.65 22.19 23.22 24.39 24.34 23.81 23.99 24.84 26.59 28.03 33.27 35.53 37.27 37.96 39.59 40.79 39.82 40.72 41.39 43.58 45.20 46.94 49.54 52.21 50.34 50.32 54.06 53.16 53.19 52.93 53.30 53.33 53.62 53.94 55.34 55.39 55.93
13.16 13.55 15.29 17.08 19.91 21.70 21.07 21.07 21.46 23.26 23.46 22.68 22.39 22.27 23.87 26.44 29.34 33.88 35.04 35.78 36.31 35.80 38.10 40.34 40.69 41.18 43.08 42.54 44.74 48.25 48.23 53.10 54.00 53.09 52.84 53.34 53.65 54.76 55.02 54.35 54.63 55.26 54.99
11.56 12.39 14.72 14.82 17.62 18.36 21.70 22.42 21.38 22.37 22.92 23.04 22.22 21.30 23.16 24.89 27.12 30.50 31.28 31.78 32.70 32.54 33.48 35.59 37.93 38.42 38.42 37.67 37.90 38.98 46.32 51.62 53.97 53.74 53.72 54.33 55.24 53.92 53.69 54.00 52.97 53.41 53.21
12.33 13.28 13.79 15.98 13.59 16.71 19.64 21.82 22.90 24.06 25.33 23.53 24.53 23.65 22.78 23.31 26.41 31.88 31.43 30.69 30.89 31.32 30.05 30.06 30.92 32.66 32.91 33.21 33.17 32.92 34.17 35.95 37.68 38.23 43.37 52.88 53.52 53.51 52.93 53.86 52.52 50.94 50.35
11.48 14.35 13.84 12.74 11.74 16.16 16.70 18.73 23.22 25.34 26.39 27.23 28.19 27.43 25.80 28.15 29.45 31.13 31.12 31.88 31.32 30.36 25.85 24.39 23.91 24.98 25.94 27.36 28.39 29.49 29.47 30.91 31.13 33.58 34.80 35.32 36.17 40.87 49.08 43.92 46.33 49.57 49.23
10.99 12.71 13.30 13.69 11.40 11.69 13.00 16.09 15.86 19.87 22.69 23.65 26.30 26.89 27.21 26.92 27.54 28.82 29.35 28.42 29.57 26.56 22.49 21.99 21.69 22.27 22.80 23.74 24.43 25.49 25.81 26.75 28.81 30.16 31.82 32.32 32.38 32.71 34.09 34.01 34.55 45.67 48.04
7.34 16.62 14.24 11.39 12.53 12.67 13.36 14.20 15.91 15.75 15.08 16.28 20.67 23.61 25.33 25.22 25.11 25.97 26.90 24.67 21.22 22.39 21.37 20.68 20.55 21.21 21.53 21.75 22.58 23.04 24.31 25.22 25.91 26.81 28.02 29.50 30.69 32.02 32.27 32.40 32.58 33.72 34.19
4.89 4.81 5.77 8.46 11.68 15.00 13.98 13.84 14.36 15.23 15.01 15.25 16.83 19.52 21.75 22.77 22.84 22.95 23.20 19.34 18.62 18.74 19.42 19.61 20.43 20.56 20.77 21.41 21.57 22.24 23.04 24.23 24.18 24.88 25.41 26.26 27.44 29.48 30.02 30.71 32.00 34.29 34.58
1.48 14.87 14.67 9.25 10.60 11.06 11.05 11.64 11.78 12.69 13.14 14.52 14.77 15.40 18.25 18.34 16.17 16.06 17.18 17.10 17.36 17.90 18.74 18.51 19.24 19.81 19.84 20.11 20.52 20.56 20.64 21.06 21.71 22.88 23.96 24.92 26.13 27.11 27.15 27.75 28.42 28.26 28.27
4.44 5.70 17.14 12.35 8.69 8.34 8.17 8.59 9.54 10.75 11.97 12.64 14.08 16.52 22.39 16.43 15.61 15.46 15.17 15.58 15.73 16.31 17.48 18.06 17.97 18.41 18.77 18.52 18.83 19.00 18.87 19.17 19.96 20.84 22.27 23.37 24.38 24.67 26.29 26.70 27.35 27.50 27.18
4.44 4.38 6.58 8.13 8.67 6.71 6.42 6.69 5.57 6.74 7.22 6.87 9.62 14.54 19.00 16.07 16.08 15.66 15.38 15.00 15.49 16.16 17.03 17.09 16.70 17.03 17.61 17.31 17.26 17.36 17.59 17.67 18.60 19.66 20.56 22.12 22.71 23.47 24.31 24.74 25.50 25.73 25.67
7.31 6.78 6.87 6.65 8.78 13.43 8.95 8.37 6.81 5.20 5.51 6.05 6.91 12.30 13.20 14.76 15.32 15.50 15.58 15.47 15.50 15.28 15.76 15.83 15.33 15.08 16.56 17.14 17.95 18.14 17.16 17.48 18.82 19.87 19.27 19.85 21.14 21.53 22.40 22.29 22.89 24.20 24.68
7.56 6.92 8.41 8.58 8.32 8.04 7.93 6.93 5.98 11.71 10.20 8.45 7.64 11.22 9.25 11.24 13.23 13.65 14.53 15.49 15.45 15.08 15.15 14.49 13.67 12.97 13.41 14.59 16.43 17.80 18.88 19.84 20.20 19.94 20.04 19.37 19.34 20.21 20.75 20.99 21.32 21.44 22.06
11.14 9.54 8.15 8.01 11.35 11.95 12.67 12.86 8.66 8.60 9.51 10.13 9.89 9.53 7.52 7.64 8.27 11.30 10.84 11.77 13.63 13.83 13.51 13.79 13.92 12.88 12.12 12.08 13.26 15.32 21.63 22.59 20.37 20.45 20.24 19.81 19.02 19.08 19.16 19.60 19.96 19.80 19.71
10.04 11.86 12.13 12.29 12.24 12.62 12.16 10.66 8.77 7.70 6.82 9.17 9.16 7.29 7.53 5.91 6.06 6.14 6.74 4.75 7.90 10.97 10.53 12.97 12.72 11.03 10.98 12.17 12.21 17.45 21.27 21.28 21.50 21.83 19.78 18.54 18.28 17.92 18.01 17.76 18.34 18.54 18.05
MSLP
1015.94 1014.90 1014.16 1013.64 1013.02 1012.20 1011.76 1010.94 1010.06 1007.92 1007.03 1006.84 1005.22 1005.51 1006.03 1006.28 1006.92 1007.98 1008.94 1009.96 1011.06 1011.93 1012.98 1013.86 1014.65 1015.27 1016.10 1016.69 1017.19 1017.45 1017.94 1018.44 1019.35 1020.06 1020.11 1020.34 1020.90 1021.34 1021.93 1022.36 1022.69 1023.12 1023.47
1016.26 1015.25 1014.21 1013.48 1012.73 1011.99 1011.50 1010.55 1009.37 1008.64 1007.06 1006.70 1005.42 1005.41 1005.54 1005.80 1005.88 1007.24 1008.12 1008.99 1010.03 1011.09 1012.16 1013.15 1013.95 1014.59 1015.22 1015.94 1016.52 1016.94 1017.30 1017.84 1018.45 1019.36 1019.76 1020.17 1020.36 1020.72 1021.36 1022.10 1022.43 1022.70 1023.09
1016.54 1015.59 1014.59 1013.66 1012.77 1012.02 1011.27 1010.48 1009.45 1008.30 1007.31 1005.38 1005.31 1005.06 1005.49 1005.49 1005.52 1006.24 1007.32 1008.19 1009.07 1010.04 1011.16 1012.14 1013.02 1013.78 1014.49 1015.29 1015.76 1016.37 1016.73 1017.19 1017.72 1018.47 1019.28 1019.48 1019.94 1020.48 1021.42 1021.81 1022.18 1022.53 1022.73
1016.86 1015.93 1015.05 1014.24 1013.26 1012.26 1011.42 1010.50 1009.73 1008.62 1007.48 1006.78 1005.55 1004.99 1005.00 1005.33 1005.85 1005.36 1006.54 1007.52 1008.39 1009.39 1010.43 1011.28 1012.11 1012.84 1013.45 1014.33 1014.89 1015.49 1016.00 1016.72 1017.27 1017.81 1018.56 1018.94 1019.34 1020.01 1020.57 1021.27 1021.98 1022.20 1022.49
1017.40 1016.27 1015.48 1014.66 1013.72 1012.68 1011.66 1010.70 1009.78 1008.76 1007.84 1007.21 1006.20 1005.53 1004.75 1004.54 1005.42 1005.61 1005.65 1006.50 1007.66 1008.59 1009.59 1010.51 1011.31 1012.08 1012.50 1013.05 1013.93 1014.63 1015.19 1015.88 1016.60 1017.27 1018.02 1018.50 1018.91 1019.56 1019.81 1020.42 1021.15 1021.73 1022.14
1018.03 1017.04 1016.03 1014.94 1013.94 1013.03 1012.02 1011.14 1010.08 1009.27 1008.27 1007.68 1006.71 1006.36 1004.93 1004.31 1005.13 1005.59 1005.29 1005.76 1006.65 1007.58 1008.68 1009.68 1010.48 1011.26 1011.77 1012.21 1012.97 1013.60 1014.10 1014.70 1015.45 1016.18 1016.95 1017.63 1017.89 1018.41 1019.08 1019.77 1020.57 1021.40 1022.08
1018.56 1017.68 1016.68 1015.81 1014.67 1013.85 1012.88 1011.79 1011.02 1010.14 1009.36 1008.48 1008.05 1007.23 1006.23 1005.45 1004.36 1004.45 1005.18 1004.89 1005.68 1006.52 1007.67 1008.70 1009.64 1010.50 1011.19 1011.77 1012.39 1012.79 1013.30 1013.70 1014.18 1014.94 1015.72 1016.30 1016.95 1017.27 1018.13 1019.07 1019.59 1020.11 1020.30
1019.05 1018.22 1017.43 1016.48 1015.62 1014.63 1013.87 1012.99 1012.05 1011.27 1010.59 1010.05 1009.60 1008.31 1007.22 1006.40 1004.35 1004.90 1005.05 1004.59 1005.04 1005.53 1006.66 1007.68 1008.62 1009.45 1010.37 1011.04 1011.88 1012.48 1012.74 1013.16 1013.55 1014.07 1014.57 1015.20 1015.66 1016.44 1016.89 1017.11 1017.94 1019.01 1019.95
1019.49 1018.78 1018.12 1017.44 1016.45 1015.60 1014.81 1014.09 1013.52 1012.54 1011.94 1011.38 1010.79 1009.72 1008.92 1008.20 1006.41 1005.22 1005.29 1004.07 1004.87 1004.96 1005.81 1006.75 1007.63 1008.43 1009.23 1010.09 1010.83 1011.62 1012.22 1012.57 1013.08 1013.60 1014.03 1014.50 1015.03 1015.55 1015.99 1017.13 1018.04 1018.88 1019.56
1019.87 1019.16 1018.40 1017.92 1017.35 1016.54 1015.84 1015.14 1014.28 1013.76 1013.17 1012.37 1011.61 1010.95 1010.28 1009.29 1007.25 1006.01 1005.53 1004.65 1004.54 1005.21 1005.49 1006.13 1006.85 1007.69 1008.41 1009.32 1009.92 1010.69 1011.35 1011.81 1012.66 1013.54 1014.21 1014.44 1014.65 1014.95 1015.46 1015.73 1016.55 1017.47 1018.11
1020.03 1019.50 1018.78 1018.13 1017.66 1017.19 1016.41 1015.81 1015.09 1014.32 1013.64 1013.28 1012.80 1011.98 1011.17 1010.32 1008.51 1007.33 1006.57 1005.94 1005.69 1005.53 1005.54 1005.97 1007.03 1007.50 1007.76 1008.63 1009.34 1009.74 1010.27 1011.00 1011.78 1012.49 1013.12 1013.68 1014.22 1014.65 1014.97 1015.02 1015.13 1015.63 1016.34
1020.20 1019.72 1019.30 1018.66 1018.08 1017.63 1017.03 1016.35 1015.90 1015.05 1014.57 1014.19 1013.45 1012.93 1012.21 1011.19 1009.93 1008.80 1008.49 1007.22 1007.28 1006.36 1006.19 1006.34 1007.27 1007.65 1007.88 1008.16 1008.83 1008.99 1009.70 1010.22 1010.89 1011.66 1012.14 1012.48 1013.05 1013.65 1014.06 1014.39 1014.36 1014.56 1014.69
1020.47 1020.00 1019.62 1019.23 1018.67 1018.14 1017.59 1016.90 1016.19 1015.50 1015.16 1014.80 1014.43 1013.77 1012.91 1012.13 1011.02 1009.83 1009.79 1008.92 1008.24 1008.40 1007.18 1007.45 1006.93 1007.04 1008.16 1008.44 1008.56 1008.65 1009.13 1009.68 1010.25 1010.74 1010.99 1011.35 1011.82 1012.23 1012.82 1013.26 1013.59 1013.95 1014.14
1020.74 1020.32 1019.55 1018.98 1018.60 1018.27 1018.05 1017.53 1016.97 1016.46 1015.79 1015.27 1015.00 1014.38 1013.80 1012.87 1011.93 1011.17 1010.72 1010.14 1009.28 1008.96 1008.81 1008.60 1008.28 1007.65 1008.05 1008.29 1008.82 1009.10 1009.11 1009.15 1009.29 1009.62 1010.00 1010.27 1010.73 1011.41 1011.86 1012.23 1012.73 1013.26 1013.75
1020.84 1020.63 1020.41 1019.97 1019.38 1018.80 1018.21 1017.88 1017.48 1017.03 1016.61 1016.13 1015.47 1015.13 1014.90 1014.10 1013.41 1012.65 1012.09 1011.24 1010.45 1009.89 1010.03 1009.77 1009.50 1008.43 1009.39 1008.94 1009.33 1009.81 1009.96 1010.12 1010.10 1009.93 1009.70 1009.70 1010.13 1010.63 1010.83 1011.21 1011.61 1012.20 1012.52
1021.14 1020.74 1020.50 1020.48 1020.20 1019.52 1018.94 1018.43 1018.09 1017.81 1017.43 1017.00 1016.49 1016.37 1016.08 1015.34 1014.66 1013.68 1012.95 1012.10 1011.53 1011.03 1010.97 1011.18 1010.16 1010.52 1011.05 1010.47 1009.77 1010.39 1010.67 1010.80 1010.91 1010.71 1010.40 1010.17 1010.34 1010.27 1010.37 1010.64 1011.00 1011.23 1011.73
1021.27 1020.95 1020.74 1020.43 1020.13 1019.80 1019.30 1018.84 1018.42 1018.15 1018.08 1017.88 1017.33 1016.69 1016.37 1016.16 1015.73 1015.00 1013.98 1013.45 1012.89 1012.33 1012.07 1012.34 1012.01 1011.96 1012.39 1012.11 1011.39 1011.20 1011.17 1011.90 1011.56 1011.76 1010.99 1010.86 1010.69 1010.91 1011.13 1010.83 1010.68 1010.64 1011.02
1021.38 1020.85 1020.95 1020.81 1020.66 1020.34 1019.97 1019.56 1019.23 1018.93 1018.66 1018.13 1017.79 1017.25 1016.88 1016.85 1016.46 1015.77 1014.83 1014.38 1014.17 1013.69 1013.66 1013.45 1013.47 1013.08 1013.13 1012.93 1012.74 1012.46 1011.63 1011.77 1012.05 1011.76 1011.65 1011.91 1011.33 1011.02 1011.29 1011.58 1011.20 1011.23 1011.35
1021.47 1021.09 1021.08 1020.93 1020.58 1020.30 1020.40 1020.17 1019.82 1019.48 1019.21 1018.80 1018.48 1017.96 1017.85 1017.70 1017.17 1016.47 1016.26 1015.97 1015.41 1015.01 1015.05 1014.97 1014.90 1014.33 1014.43 1013.87 1013.87 1013.51 1013.61 1013.08 1012.73 1013.20 1012.65 1012.26 1011.74 1011.60 1011.82 1011.90 1011.86 1011.24 1011.47
1021.29 1020.62 1020.41 1020.76 1020.69 1020.56 1020.43 1020.49 1020.43 1020.10 1019.77 1019.44 1019.11 1018.62 1018.23 1017.87 1017.64 1017.68 1017.49 1016.74 1016.26 1016.17 1016.07 1016.04 1016.23 1015.99 1015.59 1015.34 1014.92 1014.49 1014.57 1014.33 1013.48 1013.67 1013.73 1013.34 1012.95 1012.46 1012.25 1012.68 1012.34 1012.27 1012.03
1020.89 1020.85 1020.18 1020.47 1020.60 1020.68 1020.81 1020.80 1020.62 1020.53 1020.38 1020.06 1019.68 1019.12 1017.94 1018.76 1018.78 1018.72 1018.06 1017.32 1017.45 1017.25 1016.99 1017.00 1017.15 1016.97 1016.58 1016.32 1016.01 1015.56 1015.48 1015.23 1014.73 1014.19 1014.39 1014.00 1013.64 1013.47 1013.01 1012.64 1013.44 1013.41 1013.13
1020.48 1020.61 1020.62 1020.48 1020.47 1020.58 1020.76 1020.90 1021.05 1021.00 1020.73 1020.47 1020.14 1019.86 1019.66 1019.93 1018.82 1018.26 1018.28 1018.22 1017.90 1017.87 1017.90 1017.92 1017.95 1017.80 1017.60 1017.28 1017.16 1016.87 1016.35 1016.06 1015.78 1015.42 1015.21 1015.13 1014.67 1014.39 1013.83 1013.53 1013.72 1014.25 1014.51
1020.05 1020.21 1020.31 1020.35 1020.31 1020.39 1020.54 1020.69 1020.77 1020.85 1020.89 1020.74 1020.44 1020.02 1019.57 1019.15 1018.83 1018.96 1018.95 1018.57 1018.41 1018.62 1018.68 1018.52 1018.55 1018.38 1018.16 1017.92 1017.65 1017.43 1017.07 1016.68 1016.66 1016.48 1016.07 1015.83 1015.60 1015.61 1015.29 1014.55 1014.60 1015.05 1015.23
1019.64 1019.87 1019.97 1020.04 1020.04 1020.14 1020.31 1020.54 1020.68 1020.65 1020.49 1020.44 1020.42 1020.36 1020.17 1019.84 1019.79 1019.77 1019.25 1018.84 1018.80 1018.97 1019.11 1019.09 1019.02 1018.78 1018.56 1018.25 1018.01 1017.79 1017.58 1017.41 1017.27 1017.23 1016.90 1016.46 1016.31 1016.69 1016.41 1015.74 1015.66 1016.15 1015.99
1019.26 1019.50 1019.61 1019.70 1019.79 1019.87 1020.02 1020.15 1020.31 1020.37 1020.34 1020.21 1020.06 1019.91 1019.73 1019.57 1019.51 1019.26 1019.21 1019.28 1019.21 1019.51 1019.41 1019.30 1019.14 1019.14 1019.15 1018.94 1018.63 1018.23 1017.94 1017.76 1017.65 1017.60 1017.52 1017.40 1017.21 1017.24 1017.15 1017.26 1016.96 1017.00 1017.29
1019.01 1019.10 1019.24 1019.38 1019.49 1019.57 1019.69 1019.81 1019.89 1019.94 1019.98 1019.98 1019.88 1019.81 1019.71 1019.61 1019.54 1019.58 1019.53 1019.52 1019.60 1019.75 1019.41 1019.10 1019.26 1019.35 1019.35 1019.38 1019.19 1018.51 1018.32 1018.20 1018.12 1017.82 1017.99 1018.13 1018.02 1017.94 1018.09 1018.04 1018.17 1018.16 1018.18
Wind_Speed
12 12 11 10 11 11 10 8 9 10 9 10 6 13 19 21 21 20 19 19 19 16 15 15 16 11 8 8 7 8 8 4 4 4 3 4 7 9 6 6 6 7 6
12 11 12 11 11 11 11 12 11 9 9 10 6 4 11 17 20 21 20 19 20 19 17 16 16 11 12 11 8 11 10 6 4 6 4 3 5 10 8 8 6 6 7
12 12 12 13 13 12 13 12 11 11 11 9 5 5 7 13 19 20 19 20 20 19 18 17 17 16 14 10 10 10 9 8 4 4 4 2 2 7 4 4 5 4 5
12 12 13 14 13 13 12 12 11 10 10 10 8 5 6 13 18 21 20 19 19 18 18 17 17 17 16 14 12 12 9 9 4 4 3 3 3 3 5 7 5 2 5
12 13 13 13 13 13 14 13 12 10 9 11 10 7 4 10 10 17 20 20 19 18 17 17 16 17 19 17 11 12 11 10 7 5 3 3 4 4 12 5 5 4 4
9 12 13 14 14 14 14 14 14 13 12 11 10 10 3 4 5 19 23 21 21 19 18 17 16 17 18 19 17 16 14 13 12 9 6 8 10 7 8 7 6 4 5
10 9 13 13 14 15 14 14 14 14 12 12 13 10 7 4 11 3 20 18 19 19 18 16 14 12 16 16 17 19 17 17 16 12 12 9 9 10 10 10 10 8 5
9 10 10 13 13 14 14 14 15 12 13 12 12 13 11 10 15 12 16 17 17 20 19 18 18 16 16 17 16 15 15 13 14 10 12 11 10 11 14 14 13 8 2
10 10 7 11 12 13 14 13 12 12 11 11 11 13 13 12 20 13 9 15 15 17 17 18 18 17 20 21 18 16 15 12 10 12 13 13 13 16 14 7 7 8 5
10 10 8 6 10 12 12 11 11 10 9 9 11 12 17 12 25 23 13 1 9 11 14 15 16 17 17 23 19 16 15 14 11 9 7 3 8 14 18 15 11 11 6
8 9 9 7 8 10 10 8 10 10 11 11 11 11 13 16 16 26 22 8 2 4 3 5 3 6 14 22 23 15 16 14 13 12 10 10 8 8 9 11 12 12 10
7 8 8 7 6 7 9 9 9 9 10 11 11 10 10 13 21 21 21 18 12 1 5 5 6 7 6 11 19 19 16 15 10 10 10 11 11 10 9 11 13 11 11
6 7 7 7 6 5 7 9 7 9 8 8 8 9 10 10 11 23 21 19 16 7 5 3 13 15 10 8 2 16 12 11 11 11 12 12 10 11 11 11 11 12 11
5 6 7 6 7 6 5 5 6 6 7 7 7 9 9 10 11 10 9 9 12 8 8 4 5 13 10 9 5 5 4 7 12 11 11 11 10 9 10 10 10 11 11
5 4 5 5 5 5 6 5 3 5 9 6 7 6 9 9 12 18 16 9 7 8 5 4 4 5 3 5 4 5 4 3 1 1 0 9 10 10 10 10 10 9 12
3 4 4 2 4 5 4 4 8 10 13 16 17 13 6 16 21 22 19 22 18 14 6 5 7 7 6 4 5 4 4 5 2 1 1 2 1 2 9 6 6 10 11
3 3 3 4 3 4 4 4 5 6 9 11 15 16 17 17 19 20 18 17 22 14 7 7 7 7 6 6 5 5 3 4 3 1 2 1 2 1 2 1 1 8 11
3 7 1 3 2 2 3 4 3 4 5 6 9 12 16 16 16 18 18 13 10 12 8 8 7 7 6 6 6 5 6 5 5 4 4 2 1 2 1 1 1 2 2
3 3 3 2 2 2 2 3 3 4 5 5 5 7 11 13 13 15 16 7 7 7 8 8 7 7 7 7 6 6 6 5 5 4 5 4 4 3 1 1 1 3 5
3 9 6 3 1 1 1 1 2 3 3 4 5 6 5 7 7 7 6 7 7 6 6 7 7 6 6 6 6 6 6 7 7 6 5 5 4 4 4 4 3 1 2
3 3 9 3 2 3 3 1 1 2 2 3 4 7 13 5 5 5 5 6 6 6 6 6 5 6 6 6 6 6 6 6 6 6 6 6 6 5 5 5 4 4 4
3 3 2 2 2 2 3 3 2 1 2 2 3 4 10 2 3 4 4 5 5 5 5 5 4 5 5 5 5 5 6 7 7 6 6 6 6 6 6 6 6 5 4
3 3 2 2 3 5 1 2 2 2 3 3 3 3 3 4 3 3 3 3 3 4 4 4 3 3 4 4 4 5 5 6 6 6 6 6 6 6 5 6 6 5 4
4 4 2 2 2 3 2 2 2 5 3 2 2 2 2 2 2 2 2 2 2 2 2 3 3 4 3 3 4 4 3 4 5 5 6 6 6 7 6 7 7 8 6
3 3 3 3 3 2 2 2 3 3 3 3 3 2 3 2 3 3 2 1 1 1 1 1 2 3 4 4 5 7 3 8 6 6 4 5 7 7 6 6 6 6 7
3 3 4 3 3 4 4 4 4 3 3 3 3 3 3 3 3 2 2 2 2 2 2 1 0 1 2 3 5 4 7 8 6 9 5 4 5 5 5 6 8 5 6
Wind_Direction
335 333 338 342 341 340 329 324 306 321 310 261 206 199 194 185 178 178 178 175 179 178 181 186 194 176 179 171 175 180 184 154 136 208 172 186 169 179 171 185 178 187 197
335 336 343 345 344 346 338 334 324 313 317 283 231 155 201 190 181 179 178 177 178 181 184 186 194 187 179 177 179 184 189 182 137 160 174 149 179 186 173 179 187 196 193
338 343 349 351 349 348 338 334 336 325 310 339 257 169 215 206 188 184 183 179 182 183 187 188 191 190 191 182 182 184 187 185 166 143 162 149 142 170 136 166 182 189 195
340 348 354 353 348 344 341 339 337 334 328 314 297 195 204 198 207 186 180 181 184 185 188 191 192 192 189 182 185 185 180 182 162 151 156 151 143 156 169 180 190 177 199
347 350 352 349 350 350 351 349 346 348 347 329 310 258 190 192 202 204 182 184 186 185 188 193 194 195 191 186 184 187 174 181 181 166 155 150 154 152 190 170 184 182 205
342 352 350 351 357 356 355 354 356 358 359 352 347 323 77 203 55 220 193 184 184 185 187 192 193 191 191 184 185 182 183 180 187 187 175 194 191 187 179 176 169 154 209
345 341 355 352 360 359 355 1 3 0 360 6 359 354 11 9 38 230 206 186 184 185 189 189 191 194 191 193 193 185 189 188 187 186 191 192 184 182 165 174 193 192 199
344 346 353 354 357 0 2 5 2 0 5 7 0 4 357 2 31 3 204 193 195 186 188 189 192 190 192 191 196 203 202 200 198 190 196 196 190 176 181 189 190 186 82
351 342 342 355 353 3 3 3 1 2 3 7 4 8 9 358 14 23 256 184 190 197 187 189 191 192 190 187 194 201 205 208 201 193 188 194 190 177 182 149 168 170 203
348 338 333 346 356 0 360 359 359 3 8 4 4 6 4 357 16 23 16 358 167 193 191 189 188 197 183 188 195 196 202 203 195 196 219 261 208 192 182 187 179 187 187
340 338 342 348 359 356 357 1 360 5 11 12 8 3 3 359 7 21 20 16 40 117 138 127 105 74 183 188 199 197 201 194 199 202 208 214 209 203 196 205 192 194 198
341 345 345 344 6 355 359 2 1 10 21 12 8 7 359 357 6 19 15 29 355 89 133 122 102 92 117 188 195 203 194 189 198 203 207 210 209 206 204 205 211 207 214
353 343 339 346 3 6 355 3 3 8 19 21 10 3 359 357 356 13 9 19 26 359 58 91 122 117 119 84 125 214 192 197 203 205 209 212 211 206 200 203 211 216 219
350 343 336 350 0 353 9 354 1 6 13 11 15 10 354 358 358 5 4 357 12 23 7 16 88 93 91 98 74 50 220 224 213 211 212 211 210 202 204 197 202 206 215
335 330 349 348 346 352 0 2 356 2 17 14 13 17 356 3 359 4 7 6 9 24 25 13 351 42 62 84 82 66 57 43 85 1 42 208 203 204 206 203 204 204 211
323 329 328 24 342 349 343 358 13 29 20 15 20 28 13 12 4 5 17 19 25 40 52 36 42 39 18 23 73 78 50 55 20 42 313 95 323 228 207 200 197 204 211
245 285 306 353 346 346 344 359 2 359 12 19 13 15 21 17 12 7 21 26 31 38 42 33 45 50 30 17 34 48 66 29 6 310 78 330 118 70 284 208 217 212 220
226 262 269 294 290 332 344 346 350 9 359 359 5 13 16 14 18 14 23 30 27 28 30 31 22 33 29 29 25 21 37 43 11 17 28 5 12 116 166 272 177 178 147
221 236 224 244 276 257 35 5 357 5 9 360 346 7 6 15 19 27 26 26 30 33 23 23 19 20 16 24 23 24 19 36 54 5 25 15 17 42 70 86 31 117 158
225 240 218 194 210 117 18 40 9 357 359 4 354 340 350 15 15 17 22 27 26 25 25 27 12 14 18 15 22 26 23 23 31 28 13 17 15 40 64 21 27 40 71
196 216 241 175 174 180 163 170 305 351 348 341 341 335 1 22 10 13 11 31 26 21 19 23 16 14 17 20 17 27 25 22 20 27 13 10 15 22 33 66 30 32 60
198 198 209 218 185 157 194 187 181 238 292 302 307 329 349 340 353 17 28 26 25 20 17 23 17 18 19 24 17 17 33 29 19 20 22 13 16 21 33 40 47 41 14
199 193 203 208 183 203 194 196 216 219 226 250 280 312 329 341 352 345 349 28 40 25 14 22 28 32 20 20 19 21 25 31 20 13 25 27 21 22 21 50 44 39 34
185 189 194 216 179 191 194 202 221 261 255 244 247 253 269 293 292 291 314 351 26 33 21 26 34 36 34 24 8 4 5 31 23 21 23 33 39 23 21 39 48 34 37
179 191 192 197 208 228 253 235 226 228 244 246 256 256 260 264 289 299 308 304 312 299 337 33 38 47 29 16 3 346 28 73 87 47 26 38 52 45 41 31 39 52 39
181 190 205 210 218 226 229 235 238 232 228 232 235 238 230 233 255 265 273 288 270 249 280 299 36 60 26 4 337 357 31 52 49 77 62 51 47 51 46 53 45 45 49